Time,TemperatureF,DewpointF,PressureIn,WindDirection,WindDirectionDegrees,WindSpeedMPH,WindSpeedGustMPH,Humidity,HourlyPrecipIn,Conditions,Clouds,dailyrainin,SoftwareType,DateUTC
2013-09-15 00:02:00,64.2,40.5,30.01,SW,225,0.0,0.0,42,0.00,,,0.00,WUHU21623XXSP,2013-09-15 07:02:00,
2013-09-15 00:07:00,64.2,41.1,30.01,SW,225,0.0,0.0,43,0.00,,,0.00,WUHU21623XXSP,2013-09-15 07:07:00,
2013-09-15 00:12:00,64.0,41.0,30.01,SW,225,0.0,0.0,43,0.00,,,0.00,WUHU21623XXSP,2013-09-15 07:12:00,
2013-09-15 00:17:00,63.7,40.6,30.01,SW,225,0.0,0.0,43,0.00,,,0.00,WUHU21623XXSP,2013-09-15 07:17:00,
2013-09-15 00:22:00,63.1,40.2,30.01,SW,225,0.0,0.0,43,0.00,,,0.00,WUHU21623XXSP,2013-09-15 07:22:00,
2013-09-15 00:27:00,63.1,40.2,30.01,SW,225,0.0,0.0,43,0.00,,,0.00,WUHU21623XXSP,2013-09-15 07:27:00,
2013-09-15 00:32:00,62.8,40.4,30.01,SSE,157,0.0,0.0,44,0.00,,,0.00,WUHU21623XXSP,2013-09-15 07:32:00,
2013-09-15 00:37:00,62.4,40.1,30.01,SSE,157,0.0,0.0,44,0.00,,,0.00,WUHU21623XXSP,2013-09-15 07:37:00,
2013-09-15 00:42:00,62.4,40.1,30.01,SSE,157,0.0,0.0,44,0.00,,,0.00,WUHU21623XXSP,2013-09-15 07:42:00,
2013-09-15 00:54:00,61.5,39.8,30.01,SE,135,0.0,0.0,45,0.00,,,0.00,WUHU21623XXSP,2013-09-15 07:54:00,
2013-09-15 00:59:00,61.3,39.8,30.01,SE,135,0.0,0.0,45,0.00,,,0.00,WUHU21623XXSP,2013-09-15 07:59:00,
2013-09-15 01:05:00,61.3,39.7,30.01,SSW,202,0.0,0.0,45,0.00,,,0.00,WUHU21623XXSP,2013-09-15 08:05:00,
2013-09-15 01:10:00,60.6,39.4,30.01,ESE,112,0.0,0.0,45,0.00,,,0.00,WUHU21623XXSP,2013-09-15 08:10:00,
2013-09-15 01:15:00,60.6,39.0,30.01,ESE,112,0.0,0.0,45,0.00,,,0.00,WUHU21623XXSP,2013-09-15 08:15:00,
2013-09-15 01:20:00,60.4,39.5,30.01,East,90,0.0,0.0,46,0.00,,,0.00,WUHU21623XXSP,2013-09-15 08:20:00,
2013-09-15 01:25:00,60.1,39.1,30.01,East,90,0.0,0.0,46,0.00,,,0.00,WUHU21623XXSP,2013-09-15 08:25:00,
2013-09-15 01:33:00,59.7,38.8,30.01,East,90,0.0,0.0,46,0.00,,,0.00,WUHU21623XXSP,2013-09-15 08:33:00,
2013-09-15 01:38:00,59.5,38.6,30.01,East,90,0.0,0.0,46,0.00,,,0.00,WUHU21623XXSP,2013-09-15 08:38:00,
2013-09-15 01:43:00,59.4,39.1,30.00,East,90,0.0,0.0,47,0.00,,,0.00,WUHU21623XXSP,2013-09-15 08:43:00,
2013-09-15 01:48:00,59.2,38.9,30.00,East,90,0.0,0.0,47,0.00,,,0.00,WUHU21623XXSP,2013-09-15 08:48:00,
2013-09-15 01:59:00,58.8,38.6,30.01,SSE,157,0.0,0.0,47,0.00,,,0.00,WUHU21623XXSP,2013-09-15 08:59:00,
2013-09-15 02:04:00,58.6,39.0,30.00,ESE,112,0.0,0.0,48,0.00,,,0.00,WUHU21623XXSP,2013-09-15 09:04:00,
2013-09-15 02:09:00,58.3,38.7,30.00,South,180,0.0,0.0,48,0.00,,,0.00,WUHU21623XXSP,2013-09-15 09:09:00,
2013-09-15 02:14:00,58.1,38.5,30.01,SSE,157,0.0,0.0,48,0.00,,,0.00,WUHU21623XXSP,2013-09-15 09:14:00,
2013-09-15 02:20:00,57.9,38.3,30.00,SSE,157,0.0,0.0,48,0.00,,,0.00,WUHU21623XXSP,2013-09-15 09:20:00,
2013-09-15 02:25:00,57.9,38.3,30.01,SSE,157,0.0,0.0,48,0.00,,,0.00,WUHU21623XXSP,2013-09-15 09:25:00,
2013-09-15 02:33:00,57.6,38.6,30.01,SE,135,0.0,0.0,49,0.00,,,0.00,WUHU21623XXSP,2013-09-15 09:33:00,
2013-09-15 02:38:00,57.4,38.4,30.00,SE,135,0.0,0.0,49,0.00,,,0.00,WUHU21623XXSP,2013-09-15 09:38:00,
2013-09-15 02:43:00,57.4,38.4,30.00,SE,135,0.0,0.0,49,0.00,,,0.00,WUHU21623XXSP,2013-09-15 09:43:00,
2013-09-15 02:50:00,57.0,38.1,30.00,ESE,112,0.0,0.0,49,0.00,,,0.00,WUHU21623XXSP,2013-09-15 09:50:00,
2013-09-15 02:55:00,57.0,38.1,30.00,ESE,112,0.0,0.0,50,0.00,,,0.00,WUHU21623XXSP,2013-09-15 09:55:00,
2013-09-15 03:00:00,57.0,38.7,30.01,SSE,157,0.0,0.0,50,0.00,,,0.00,WUHU21623XXSP,2013-09-15 10:00:00,
2013-09-15 03:05:00,56.8,38.5,30.01,SSE,157,0.0,0.0,50,0.00,,,0.00,WUHU21623XXSP,2013-09-15 10:05:00,
2013-09-15 03:10:00,56.7,38.3,30.00,SSE,157,0.0,0.0,50,0.00,,,0.00,WUHU21623XXSP,2013-09-15 10:10:00,
2013-09-15 03:15:00,56.5,38.1,30.00,SSW,202,0.0,0.0,50,0.00,,,0.00,WUHU21623XXSP,2013-09-15 10:15:00,
2013-09-15 03:20:00,56.5,38.1,30.00,SSW,202,0.0,0.0,50,0.00,,,0.00,WUHU21623XXSP,2013-09-15 10:20:00,
2013-09-15 03:26:00,56.3,38.4,30.00,SSW,202,0.0,0.0,51,0.00,,,0.00,WUHU21623XXSP,2013-09-15 10:26:00,
2013-09-15 03:31:00,56.1,38.2,30.00,South,180,0.0,0.0,51,0.00,,,0.00,WUHU21623XXSP,2013-09-15 10:31:00,
2013-09-15 03:37:00,56.1,38.2,30.01,South,180,0.0,0.0,51,0.00,,,0.00,WUHU21623XXSP,2013-09-15 10:37:00,
2013-09-15 03:52:00,55.8,37.9,30.00,SSE,157,0.0,0.0,51,0.00,,,0.00,WUHU21623XXSP,2013-09-15 10:52:00,
2013-09-15 03:57:00,55.6,37.7,30.00,East,90,0.0,0.0,51,0.00,,,0.00,WUHU21623XXSP,2013-09-15 10:57:00,
2013-09-15 04:02:00,55.4,37.5,30.01,East,90,0.0,0.0,51,0.00,,,0.00,WUHU21623XXSP,2013-09-15 11:02:00,
2013-09-15 04:07:00,55.2,37.8,30.00,East,90,0.0,0.0,52,0.00,,,0.00,WUHU21623XXSP,2013-09-15 11:07:00,
2013-09-15 04:12:00,55.0,37.7,30.00,SSE,157,0.0,0.0,52,0.00,,,0.00,WUHU21623XXSP,2013-09-15 11:12:00,
2013-09-15 04:22:00,54.7,37.3,30.00,SE,135,0.0,0.0,52,0.00,,,0.00,WUHU21623XXSP,2013-09-15 11:22:00,
2013-09-15 04:27:00,54.7,37.3,30.00,SE,135,0.0,0.0,52,0.00,,,0.00,WUHU21623XXSP,2013-09-15 11:27:00,
2013-09-15 04:32:00,54.5,37.6,30.00,SE,135,0.0,0.0,53,0.00,,,0.00,WUHU21623XXSP,2013-09-15 11:32:00,
2013-09-15 04:37:00,54.3,37.5,30.00,SSW,202,0.0,0.0,53,0.00,,,0.00,WUHU21623XXSP,2013-09-15 11:37:00,
2013-09-15 04:44:00,54.1,37.3,30.01,SSE,157,0.0,0.0,53,0.00,,,0.00,WUHU21623XXSP,2013-09-15 11:44:00,
2013-09-15 04:49:00,54.1,37.8,30.01,SSE,157,0.0,0.0,54,0.00,,,0.00,WUHU21623XXSP,2013-09-15 11:49:00,
2013-09-15 04:54:00,54.0,37.6,30.01,South,180,0.0,0.0,54,0.00,,,0.00,WUHU21623XXSP,2013-09-15 11:54:00,
2013-09-15 04:59:00,53.8,37.5,30.01,South,180,0.0,0.0,54,0.00,,,0.00,WUHU21623XXSP,2013-09-15 11:59:00,
2013-09-15 05:04:00,53.8,37.5,30.00,ESE,112,0.0,0.0,54,0.00,,,0.00,WUHU21623XXSP,2013-09-15 12:04:00,
2013-09-15 05:09:00,53.6,37.3,30.00,ESE,112,0.0,0.0,54,0.00,,,0.00,WUHU21623XXSP,2013-09-15 12:09:00,
2013-09-15 05:14:00,53.4,37.1,30.00,East,90,0.0,0.0,54,0.00,,,0.00,WUHU21623XXSP,2013-09-15 12:14:00,
2013-09-15 05:19:00,53.4,37.1,30.00,SSE,157,0.0,0.0,54,0.00,,,0.00,WUHU21623XXSP,2013-09-15 12:19:00,
2013-09-15 05:24:00,53.2,37.4,30.00,SSW,202,0.0,0.0,55,0.00,,,0.00,WUHU21623XXSP,2013-09-15 12:24:00,
2013-09-15 05:29:00,53.2,37.4,30.01,SE,135,0.0,0.0,55,0.00,,,0.00,WUHU21623XXSP,2013-09-15 12:29:00,
2013-09-15 05:39:00,52.9,37.1,30.01,SE,135,0.0,0.0,55,0.00,,,0.00,WUHU21623XXSP,2013-09-15 12:39:00,
2013-09-15 05:44:00,52.9,37.1,30.01,East,90,0.0,0.0,55,0.00,,,0.00,WUHU21623XXSP,2013-09-15 12:44:00,
2013-09-15 05:49:00,52.7,37.4,30.00,ESE,112,0.0,0.0,56,0.00,,,0.00,WUHU21623XXSP,2013-09-15 12:49:00,
2013-09-15 05:54:00,52.5,37.2,30.01,South,180,0.0,0.0,56,0.00,,,0.00,WUHU21623XXSP,2013-09-15 12:54:00,
2013-09-15 05:59:00,52.5,37.2,30.00,SSE,157,0.0,0.0,56,0.00,,,0.00,WUHU21623XXSP,2013-09-15 12:59:00,
2013-09-15 06:04:00,52.3,37.0,30.01,South,180,0.0,0.0,56,0.00,,,0.00,WUHU21623XXSP,2013-09-15 13:04:00,
2013-09-15 06:09:00,52.3,37.0,30.01,South,180,0.0,0.0,56,0.00,,,0.00,WUHU21623XXSP,2013-09-15 13:09:00,
2013-09-15 06:14:00,52.2,36.8,30.01,South,180,0.0,0.0,56,0.00,,,0.00,WUHU21623XXSP,2013-09-15 13:14:00,
2013-09-15 06:19:00,52.2,36.8,30.01,NW,315,0.0,0.0,56,0.00,,,0.00,WUHU21623XXSP,2013-09-15 13:19:00,
2013-09-15 06:24:00,52.0,36.7,30.01,SW,225,0.0,0.0,56,0.00,,,0.00,WUHU21623XXSP,2013-09-15 13:24:00,
2013-09-15 06:29:00,52.0,36.7,30.01,SW,225,0.0,0.0,56,0.00,,,0.00,WUHU21623XXSP,2013-09-15 13:29:00,
2013-09-15 06:39:00,51.6,36.8,30.01,NE,45,0.0,0.0,57,0.00,,,0.00,WUHU21623XXSP,2013-09-15 13:39:00,
2013-09-15 06:46:00,51.4,36.6,30.01,ENE,67,0.0,0.0,57,0.00,,,0.00,WUHU21623XXSP,2013-09-15 13:46:00,
2013-09-15 06:51:00,51.3,36.5,30.01,ENE,67,0.0,0.0,57,0.00,,,0.00,WUHU21623XXSP,2013-09-15 13:51:00,
2013-09-15 06:56:00,51.3,36.3,30.01,ENE,67,0.0,0.0,57,0.00,,,0.00,WUHU21623XXSP,2013-09-15 13:56:00,
2013-09-15 07:01:00,51.1,36.8,30.01,ENE,67,0.0,0.0,58,0.00,,,0.00,WUHU21623XXSP,2013-09-15 14:01:00,
2013-09-15 07:06:00,51.1,36.8,30.01,ENE,67,0.0,0.0,58,0.00,,,0.00,WUHU21623XXSP,2013-09-15 14:06:00,
2013-09-15 07:11:00,51.1,36.8,30.02,ENE,67,0.0,0.0,58,0.00,,,0.00,WUHU21623XXSP,2013-09-15 14:11:00,
2013-09-15 07:16:00,51.1,37.2,30.02,ENE,67,0.0,0.0,59,0.00,,,0.00,WUHU21623XXSP,2013-09-15 14:16:00,
2013-09-15 07:21:00,51.1,37.2,30.02,ENE,67,0.0,0.0,59,0.00,,,0.00,WUHU21623XXSP,2013-09-15 14:21:00,
2013-09-15 07:26:00,51.1,37.2,30.02,ENE,67,0.0,0.0,59,0.00,,,0.00,WUHU21623XXSP,2013-09-15 14:26:00,
2013-09-15 07:33:00,51.1,37.7,30.02,East,90,0.0,0.0,60,0.00,,,0.00,WUHU21623XXSP,2013-09-15 14:33:00,
2013-09-15 07:38:00,51.4,38.0,30.02,East,90,0.0,0.0,60,0.00,,,0.00,WUHU21623XXSP,2013-09-15 14:38:00,
2013-09-15 07:43:00,51.6,38.1,30.02,SE,135,0.0,0.0,60,0.00,,,0.00,WUHU21623XXSP,2013-09-15 14:43:00,
2013-09-15 07:49:00,52.0,38.5,30.02,SE,135,0.0,0.0,60,0.00,,,0.00,WUHU21623XXSP,2013-09-15 14:49:00,
2013-09-15 07:54:00,52.3,38.8,30.02,South,180,0.0,0.0,60,0.00,,,0.00,WUHU21623XXSP,2013-09-15 14:54:00,
2013-09-15 07:59:00,52.5,39.4,30.02,SSE,157,0.0,0.0,61,0.00,,,0.00,WUHU21623XXSP,2013-09-15 14:59:00,
2013-09-15 08:04:00,52.7,39.6,30.02,SSE,157,0.0,0.0,61,0.00,,,0.00,WUHU21623XXSP,2013-09-15 15:04:00,
2013-09-15 08:09:00,52.9,39.8,30.02,SSE,157,0.0,0.0,61,0.00,,,0.00,WUHU21623XXSP,2013-09-15 15:09:00,
2013-09-15 08:14:00,53.4,39.9,30.02,WNW,292,0.0,0.0,60,0.00,,,0.00,WUHU21623XXSP,2013-09-15 15:14:00,
2013-09-15 08:20:00,53.8,40.3,30.02,SW,225,0.0,0.0,60,0.00,,,0.00,WUHU21623XXSP,2013-09-15 15:20:00,
2013-09-15 08:25:00,54.1,40.6,30.02,SSE,157,0.0,0.0,60,0.00,,,0.00,WUHU21623XXSP,2013-09-15 15:25:00,
2013-09-15 08:33:00,54.7,41.1,30.02,ENE,67,0.0,0.0,60,0.00,,,0.00,WUHU21623XXSP,2013-09-15 15:33:00,
2013-09-15 08:38:00,55.0,41.4,30.02,SSW,202,0.0,0.0,60,0.00,,,0.00,WUHU21623XXSP,2013-09-15 15:38:00,
2013-09-15 08:43:00,55.6,42.1,30.01,SSE,157,0.0,0.0,61,0.00,,,0.00,WUHU21623XXSP,2013-09-15 15:43:00,
2013-09-15 08:48:00,55.9,42.3,30.02,SSE,157,0.0,0.0,61,0.00,,,0.00,WUHU21623XXSP,2013-09-15 15:48:00,
2013-09-15 08:54:00,56.1,42.8,30.01,WNW,292,0.0,0.0,61,0.00,,,0.00,WUHU21623XXSP,2013-09-15 15:54:00,
2013-09-15 08:59:00,56.5,42.6,30.02,WNW,292,0.0,0.0,60,0.00,,,0.00,WUHU21623XXSP,2013-09-15 15:59:00,
2013-09-15 09:11:00,57.6,43.8,30.02,WNW,292,0.0,0.0,60,0.00,,,0.00,WUHU21623XXSP,2013-09-15 16:11:00,
2013-09-15 09:16:00,57.9,44.2,30.01,NNW,337,0.0,0.0,60,0.00,,,0.00,WUHU21623XXSP,2013-09-15 16:16:00,
2013-09-15 09:22:00,58.5,44.2,30.02,West,270,0.0,0.0,59,0.00,,,0.00,WUHU21623XXSP,2013-09-15 16:22:00,
2013-09-15 09:27:00,58.8,44.5,30.02,NW,315,0.0,0.0,59,0.00,,,0.00,WUHU21623XXSP,2013-09-15 16:27:00,
2013-09-15 09:32:00,59.4,45.0,30.02,NW,315,0.0,0.0,59,0.00,,,0.00,WUHU21623XXSP,2013-09-15 16:32:00,
2013-09-15 09:37:00,59.7,45.4,30.02,West,270,0.0,0.0,59,0.00,,,0.00,WUHU21623XXSP,2013-09-15 16:37:00,
2013-09-15 09:42:00,60.3,45.9,30.01,NNE,22,0.0,0.0,58,0.00,,,0.00,WUHU21623XXSP,2013-09-15 16:42:00,
2013-09-15 09:48:00,61.3,46.5,30.01,WSW,247,0.0,0.0,58,0.00,,,0.00,WUHU21623XXSP,2013-09-15 16:48:00,
2013-09-15 09:54:00,61.9,46.5,30.01,SE,135,0.0,0.0,57,0.00,,,0.00,WUHU21623XXSP,2013-09-15 16:54:00,
2013-09-15 10:01:00,63.5,47.4,30.01,South,180,0.0,0.0,57,0.00,,,0.00,WUHU21623XXSP,2013-09-15 17:01:00,
2013-09-15 10:06:00,63.7,48.1,30.01,SSE,157,0.0,0.0,57,0.00,,,0.00,WUHU21623XXSP,2013-09-15 17:06:00,
2013-09-15 10:11:00,64.9,48.8,30.01,SSE,157,0.0,0.0,56,0.00,,,0.00,WUHU21623XXSP,2013-09-15 17:11:00,
2013-09-15 10:18:00,66.0,49.4,30.01,SSE,157,0.0,0.0,55,0.00,,,0.00,WUHU21623XXSP,2013-09-15 17:18:00,
2013-09-15 10:23:00,66.7,49.5,30.01,SE,135,0.0,0.0,54,0.00,,,0.00,WUHU21623XXSP,2013-09-15 17:23:00,
2013-09-15 10:28:00,67.8,49.5,30.01,West,270,0.0,0.0,52,0.00,,,0.00,WUHU21623XXSP,2013-09-15 17:28:00,
2013-09-15 10:35:00,68.9,50.0,30.01,SSE,157,0.0,0.0,51,0.00,,,0.00,WUHU21623XXSP,2013-09-15 17:35:00,
2013-09-15 10:40:00,68.9,50.0,30.01,SSW,202,0.0,0.0,51,0.00,,,0.00,WUHU21623XXSP,2013-09-15 17:40:00,
2013-09-15 10:54:00,71.4,50.0,30.01,South,180,0.0,0.0,47,0.00,,,0.00,WUHU21623XXSP,2013-09-15 17:54:00,
2013-09-15 10:59:00,72.1,50.1,30.01,WSW,247,0.0,0.0,46,0.00,,,0.00,WUHU21623XXSP,2013-09-15 17:59:00,
2013-09-15 11:04:00,72.5,50.4,30.01,WSW,247,2.5,2.5,46,0.00,,,0.00,WUHU21623XXSP,2013-09-15 18:04:00,
2013-09-15 11:09:00,73.2,49.7,30.01,SSW,202,0.9,2.5,44,0.00,,,0.00,WUHU21623XXSP,2013-09-15 18:09:00,
2013-09-15 11:15:00,73.6,50.2,30.01,South,180,0.9,0.9,44,0.00,,,0.00,WUHU21623XXSP,2013-09-15 18:15:00,
2013-09-15 11:20:00,73.9,49.9,30.01,SE,135,0.0,0.9,43,0.00,,,0.00,WUHU21623XXSP,2013-09-15 18:20:00,
2013-09-15 11:25:00,74.5,49.8,30.01,SSE,157,0.0,0.0,42,0.00,,,0.00,WUHU21623XXSP,2013-09-15 18:25:00,
2013-09-15 11:30:00,75.0,50.3,30.00,SSE,157,0.7,2.5,42,0.00,,,0.00,WUHU21623XXSP,2013-09-15 18:30:00,
2013-09-15 11:35:00,75.4,50.1,30.00,SSE,157,0.0,2.5,41,0.00,,,0.00,WUHU21623XXSP,2013-09-15 18:35:00,
2013-09-15 11:40:00,75.7,49.8,30.00,SSE,157,4.0,4.0,40,0.00,,,0.00,WUHU21623XXSP,2013-09-15 18:40:00,
2013-09-15 11:45:00,76.3,49.5,30.00,ESE,112,0.0,4.0,39,0.00,,,0.00,WUHU21623XXSP,2013-09-15 18:45:00,
2013-09-15 11:50:00,76.8,50.0,30.00,SSE,157,0.0,0.0,38,0.00,,,0.00,WUHU21623XXSP,2013-09-15 18:50:00,
2013-09-15 11:55:00,77.7,49.7,30.00,SE,135,4.5,4.5,38,0.00,,,0.00,WUHU21623XXSP,2013-09-15 18:55:00,
2013-09-15 12:00:00,78.3,49.7,30.00,SSE,157,2.2,4.5,37,0.00,,,0.00,WUHU21623XXSP,2013-09-15 19:00:00,
2013-09-15 12:05:00,78.6,49.3,29.99,SSE,157,9.2,9.2,36,0.00,,,0.00,WUHU21623XXSP,2013-09-15 19:05:00,
2013-09-15 12:10:00,79.0,48.8,30.00,South,180,5.8,9.2,35,0.00,,,0.00,WUHU21623XXSP,2013-09-15 19:10:00,
2013-09-15 12:15:00,79.5,48.5,30.00,SSW,202,4.5,5.8,34,0.00,,,0.00,WUHU21623XXSP,2013-09-15 19:15:00,
2013-09-15 12:18:00,79.5,48.5,30.00,SSW,202,4.5,5.8,34,0.00,,,0.00,WUHU21623XXSP,2013-09-15 19:18:00,
2013-09-15 12:23:00,79.9,48.8,30.00,ESE,112,4.9,4.9,34,0.00,,,0.00,WUHU21623XXSP,2013-09-15 19:23:00,
2013-09-15 12:28:00,79.9,48.8,30.00,ESE,112,4.9,4.9,34,0.00,,,0.00,WUHU21623XXSP,2013-09-15 19:28:00,
2013-09-15 12:33:00,81.0,47.5,30.00,South,180,3.4,4.9,31,0.00,,,0.00,WUHU21623XXSP,2013-09-15 19:33:00,
2013-09-15 12:38:00,81.1,47.6,30.00,South,180,0.7,3.4,31,0.00,,,0.00,WUHU21623XXSP,2013-09-15 19:38:00,
2013-09-15 12:43:00,81.5,47.9,30.00,South,180,0.7,0.7,31,0.00,,,0.00,WUHU21623XXSP,2013-09-15 19:43:00,
2013-09-15 12:48:00,81.9,48.2,30.00,East,90,0.0,0.7,31,0.00,,,0.00,WUHU21623XXSP,2013-09-15 19:48:00,
2013-09-15 12:53:00,82.2,48.5,29.99,SSE,157,4.7,4.7,31,0.00,,,0.00,WUHU21623XXSP,2013-09-15 19:53:00,
2013-09-15 12:58:00,82.6,48.8,30.00,South,180,8.9,8.9,31,0.00,,,0.00,WUHU21623XXSP,2013-09-15 19:58:00,
2013-09-15 13:03:00,82.9,48.3,29.99,SSE,157,6.0,8.9,30,0.00,,,0.00,WUHU21623XXSP,2013-09-15 20:03:00,
2013-09-15 13:08:00,82.9,48.3,30.00,South,180,0.0,6.0,30,0.00,,,0.00,WUHU21623XXSP,2013-09-15 20:08:00,
2013-09-15 13:13:00,83.1,48.5,30.00,SSE,157,0.0,0.0,30,0.00,,,0.00,WUHU21623XXSP,2013-09-15 20:13:00,
2013-09-15 13:18:00,83.5,48.8,29.99,ESE,112,4.3,4.3,30,0.00,,,0.00,WUHU21623XXSP,2013-09-15 20:18:00,
2013-09-15 13:23:00,83.5,47.8,29.99,ESE,112,0.9,4.3,29,0.00,,,0.00,WUHU21623XXSP,2013-09-15 20:23:00,
2013-09-15 13:28:00,83.8,48.1,29.99,SSE,157,2.2,6.5,29,0.00,,,0.00,WUHU21623XXSP,2013-09-15 20:28:00,
2013-09-15 13:33:00,83.8,47.0,29.99,SSW,202,6.3,6.5,28,0.00,,,0.00,WUHU21623XXSP,2013-09-15 20:33:00,
2013-09-15 13:38:00,84.0,47.2,29.99,SSE,157,9.2,9.2,28,0.00,,,0.00,WUHU21623XXSP,2013-09-15 20:38:00,
2013-09-15 13:43:00,84.0,47.2,29.99,SSE,157,2.9,9.2,28,0.00,,,0.00,WUHU21623XXSP,2013-09-15 20:43:00,
2013-09-15 13:48:00,84.0,47.2,29.99,SSE,157,2.9,4.7,27,0.00,,,0.00,WUHU21623XXSP,2013-09-15 20:48:00,
2013-09-15 13:53:00,84.2,47.3,29.99,SSW,202,8.7,8.7,28,0.00,,,0.00,WUHU21623XXSP,2013-09-15 20:53:00,
2013-09-15 13:58:00,84.4,47.5,29.99,SE,135,0.0,8.7,28,0.00,,,0.00,WUHU21623XXSP,2013-09-15 20:58:00,
2013-09-15 14:04:00,84.7,46.7,29.99,SSE,157,8.3,8.7,27,0.00,,,0.00,WUHU21623XXSP,2013-09-15 21:04:00,
2013-09-15 14:11:00,84.7,46.7,29.99,South,180,7.8,8.3,27,0.00,,,0.00,WUHU21623XXSP,2013-09-15 21:11:00,
2013-09-15 14:16:00,84.9,46.9,29.99,ESE,112,4.3,7.8,27,0.00,,,0.00,WUHU21623XXSP,2013-09-15 21:16:00,
2013-09-15 14:21:00,84.9,45.8,29.99,SSE,157,6.5,6.5,26,0.00,,,0.00,WUHU21623XXSP,2013-09-15 21:21:00,
2013-09-15 14:26:00,84.9,45.8,29.99,SW,225,4.9,6.5,26,0.00,,,0.00,WUHU21623XXSP,2013-09-15 21:26:00,
2013-09-15 14:31:00,84.9,45.8,29.99,SSW,202,11.9,11.9,26,0.00,,,0.00,WUHU21623XXSP,2013-09-15 21:31:00,
2013-09-15 14:39:00,85.1,46.0,29.99,SE,135,13.0,13.0,26,0.00,,,0.00,WUHU21623XXSP,2013-09-15 21:39:00,
2013-09-15 14:44:00,85.3,46.1,29.99,SW,225,4.9,13.0,26,0.00,,,0.00,WUHU21623XXSP,2013-09-15 21:44:00,
2013-09-15 14:49:00,85.3,46.1,29.99,South,180,6.9,6.9,26,0.00,,,0.00,WUHU21623XXSP,2013-09-15 21:49:00,
2013-09-15 14:54:00,85.5,46.3,29.98,SE,135,8.7,8.7,26,0.00,,,0.00,WUHU21623XXSP,2013-09-15 21:54:00,
2013-09-15 14:59:00,85.3,45.1,29.99,SSW,202,15.7,15.7,25,0.00,,,0.00,WUHU21623XXSP,2013-09-15 21:59:00,
2013-09-15 15:04:00,85.3,45.1,29.99,SSE,157,4.0,15.7,25,0.00,,,0.00,WUHU21623XXSP,2013-09-15 22:04:00,
2013-09-15 15:09:00,85.3,46.1,29.99,South,180,15.4,15.4,26,0.00,,,0.00,WUHU21623XXSP,2013-09-15 22:09:00,
2013-09-15 15:14:00,85.1,44.9,29.98,SSE,157,2.7,15.4,25,0.00,,,0.00,WUHU21623XXSP,2013-09-15 22:14:00,
2013-09-15 15:19:00,84.9,44.8,29.99,South,180,6.3,10.5,25,0.00,,,0.00,WUHU21623XXSP,2013-09-15 22:19:00,
2013-09-15 15:24:00,84.7,44.6,29.99,SSE,157,10.3,10.5,25,0.00,,,0.00,WUHU21623XXSP,2013-09-15 22:24:00,
2013-09-15 15:32:00,84.6,45.5,29.99,South,180,8.3,10.3,26,0.00,,,0.00,WUHU21623XXSP,2013-09-15 22:32:00,
2013-09-15 15:38:00,84.4,44.5,29.99,SSW,202,7.4,8.3,25,0.00,,,0.00,WUHU21623XXSP,2013-09-15 22:38:00,
2013-09-15 15:43:00,84.4,44.3,29.99,South,180,14.1,14.1,25,0.00,,,0.00,WUHU21623XXSP,2013-09-15 22:43:00,
2013-09-15 15:49:00,84.2,44.1,29.99,ESE,112,8.1,14.1,25,0.00,,,0.00,WUHU21623XXSP,2013-09-15 22:49:00,
2013-09-15 15:54:00,84.0,45.0,29.99,SSW,202,6.0,8.1,26,0.00,,,0.00,WUHU21623XXSP,2013-09-15 22:54:00,
2013-09-15 15:58:00,83.8,43.8,29.99,SSW,202,10.5,10.5,25,0.00,,,0.00,WUHU21623XXSP,2013-09-15 22:58:00,
2013-09-15 16:04:00,83.8,43.8,29.99,SE,135,16.6,16.6,25,0.00,,,0.00,WUHU21623XXSP,2013-09-15 23:04:00,
2013-09-15 16:09:00,83.5,43.5,29.99,SE,135,9.8,16.6,25,0.00,,,0.00,WUHU21623XXSP,2013-09-15 23:09:00,
2013-09-15 16:14:00,83.3,43.4,29.99,South,180,13.9,13.9,25,0.00,,,0.00,WUHU21623XXSP,2013-09-15 23:14:00,
2013-09-15 16:19:00,83.1,43.2,29.99,South,180,9.2,13.9,25,0.00,,,0.00,WUHU21623XXSP,2013-09-15 23:19:00,
2013-09-15 16:24:00,82.9,43.2,30.00,SE,135,6.3,9.2,25,0.00,,,0.00,WUHU21623XXSP,2013-09-15 23:24:00,
2013-09-15 16:30:00,82.8,42.9,30.00,SSE,157,16.1,16.1,25,0.00,,,0.00,WUHU21623XXSP,2013-09-15 23:30:00,
2013-09-15 16:35:00,82.8,42.9,30.00,South,180,9.6,16.1,25,0.00,,,0.00,WUHU21623XXSP,2013-09-15 23:35:00,
2013-09-15 16:40:00,82.6,43.8,30.00,SSE,157,6.9,9.6,26,0.00,,,0.00,WUHU21623XXSP,2013-09-15 23:40:00,
2013-09-15 16:47:00,82.4,43.7,30.00,SSE,157,4.7,6.9,26,0.00,,,0.00,WUHU21623XXSP,2013-09-15 23:47:00,
2013-09-15 16:52:00,82.2,43.5,30.00,South,180,6.3,6.3,26,0.00,,,0.00,WUHU21623XXSP,2013-09-15 23:52:00,
2013-09-15 16:57:00,82.2,43.5,30.00,South,180,9.8,9.8,26,0.00,,,0.00,WUHU21623XXSP,2013-09-15 23:57:00,
2013-09-15 17:02:00,82.0,43.4,30.00,South,180,6.0,9.8,26,0.00,,,0.00,WUHU21623XXSP,2013-09-16 00:02:00,
2013-09-15 17:10:00,81.7,43.1,30.00,East,90,0.0,6.0,26,0.00,,,0.00,WUHU21623XXSP,2013-09-16 00:10:00,
2013-09-15 17:15:00,81.7,43.1,30.00,SSW,202,10.3,10.3,26,0.00,,,0.00,WUHU21623XXSP,2013-09-16 00:15:00,
2013-09-15 17:20:00,81.3,42.8,30.00,South,180,2.0,10.3,26,0.00,,,0.00,WUHU21623XXSP,2013-09-16 00:20:00,
2013-09-15 17:25:00,81.1,42.7,30.00,South,180,3.8,3.8,26,0.00,,,0.00,WUHU21623XXSP,2013-09-16 00:25:00,
2013-09-15 17:32:00,80.8,42.4,30.00,ESE,112,4.5,4.5,26,0.00,,,0.00,WUHU21623XXSP,2013-09-16 00:32:00,
2013-09-15 17:38:00,80.4,42.1,30.00,ESE,112,6.9,6.9,26,0.00,,,0.00,WUHU21623XXSP,2013-09-16 00:38:00,
2013-09-15 17:43:00,80.4,42.1,30.01,SSE,157,5.1,6.9,26,0.00,,,0.00,WUHU21623XXSP,2013-09-16 00:43:00,
2013-09-15 17:49:00,80.2,41.9,30.00,South,180,5.8,5.8,26,0.00,,,0.00,WUHU21623XXSP,2013-09-16 00:49:00,
2013-09-15 17:54:00,79.9,41.6,30.00,South,180,5.1,5.8,26,0.00,,,0.00,WUHU21623XXSP,2013-09-16 00:54:00,
2013-09-15 17:59:00,79.5,41.3,30.01,South,180,5.1,5.1,26,0.00,,,0.00,WUHU21623XXSP,2013-09-16 00:59:00,
2013-09-15 18:04:00,79.3,41.1,30.01,SSE,157,6.5,6.5,26,0.00,,,0.00,WUHU21623XXSP,2013-09-16 01:04:00,
2013-09-15 18:09:00,79.3,41.1,30.01,SE,135,0.9,6.5,26,0.00,,,0.00,WUHU21623XXSP,2013-09-16 01:09:00,
2013-09-15 18:14:00,79.0,40.8,30.01,South,180,7.8,7.8,26,0.00,,,0.00,WUHU21623XXSP,2013-09-16 01:14:00,
2013-09-15 18:19:00,78.8,40.6,30.01,ESE,112,3.8,7.8,26,0.00,,,0.00,WUHU21623XXSP,2013-09-16 01:19:00,
2013-09-15 18:25:00,78.4,39.3,30.01,SSE,157,5.4,5.4,25,0.00,,,0.00,WUHU21623XXSP,2013-09-16 01:25:00,
2013-09-15 18:30:00,78.1,39.0,30.01,SSE,157,4.0,5.4,25,0.00,,,0.00,WUHU21623XXSP,2013-09-16 01:30:00,
2013-09-15 18:35:00,77.7,38.7,30.01,SSE,157,0.0,4.0,25,0.00,,,0.00,WUHU21623XXSP,2013-09-16 01:35:00,
2013-09-15 18:40:00,77.5,38.6,30.01,SSE,157,11.9,11.9,25,0.00,,,0.00,WUHU21623XXSP,2013-09-16 01:40:00,
2013-09-15 18:48:00,76.8,38.0,30.02,SE,135,0.0,0.0,25,0.00,,,0.00,WUHU21623XXSP,2013-09-16 01:48:00,
2013-09-15 18:53:00,76.6,37.8,30.02,SE,135,1.6,1.6,25,0.00,,,0.00,WUHU21623XXSP,2013-09-16 01:53:00,
2013-09-15 18:58:00,76.3,38.5,30.02,South,180,3.6,3.6,26,0.00,,,0.00,WUHU21623XXSP,2013-09-16 01:58:00,
2013-09-15 19:04:00,75.9,38.2,30.02,SSW,202,1.3,3.6,26,0.00,,,0.00,WUHU21623XXSP,2013-09-16 02:04:00,
2013-09-15 19:09:00,75.6,38.9,30.02,South,180,0.0,1.3,27,0.00,,,0.00,WUHU21623XXSP,2013-09-16 02:09:00,
2013-09-15 19:14:00,75.0,38.5,30.02,SSW,202,4.0,4.0,27,0.00,,,0.00,WUHU21623XXSP,2013-09-16 02:14:00,
2013-09-15 19:20:00,74.5,37.0,30.02,SE,135,0.0,4.0,26,0.00,,,0.00,WUHU21623XXSP,2013-09-16 02:20:00,
2013-09-15 19:26:00,74.1,36.7,30.02,SSE,157,0.0,0.0,26,0.00,,,0.00,WUHU21623XXSP,2013-09-16 02:26:00,
2013-09-15 19:31:00,73.8,36.4,30.02,SSE,157,0.0,0.0,26,0.00,,,0.00,WUHU21623XXSP,2013-09-16 02:31:00,
2013-09-15 19:36:00,73.6,36.2,30.03,SSE,157,0.0,0.0,26,0.00,,,0.00,WUHU21623XXSP,2013-09-16 02:36:00,
2013-09-15 19:41:00,73.2,36.9,30.03,South,180,0.0,0.0,27,0.00,,,0.00,WUHU21623XXSP,2013-09-16 02:41:00,
2013-09-15 19:46:00,72.7,36.5,30.03,South,180,1.3,1.3,27,0.00,,,0.00,WUHU21623XXSP,2013-09-16 02:46:00,
2013-09-15 19:51:00,72.3,36.2,30.03,West,270,0.0,1.3,27,0.00,,,0.00,WUHU21623XXSP,2013-09-16 02:51:00,
2013-09-15 19:57:00,72.0,36.9,30.03,ESE,112,0.0,0.0,28,0.00,,,0.00,WUHU21623XXSP,2013-09-16 02:57:00,
2013-09-15 20:03:00,71.4,36.4,30.03,SSE,157,0.0,0.0,28,0.00,,,0.00,WUHU21623XXSP,2013-09-16 03:03:00,
2013-09-15 20:08:00,71.2,36.3,30.03,South,180,0.0,0.0,28,0.00,,,0.00,WUHU21623XXSP,2013-09-16 03:08:00,
2013-09-15 20:13:00,71.2,36.3,30.03,SSE,157,0.0,0.0,28,0.00,,,0.00,WUHU21623XXSP,2013-09-16 03:13:00,
2013-09-15 20:18:00,70.7,35.0,30.04,South,180,0.0,0.0,27,0.00,,,0.00,WUHU21623XXSP,2013-09-16 03:18:00,
2013-09-15 20:23:00,70.5,34.6,30.04,SSE,157,0.0,0.0,27,0.00,,,0.00,WUHU21623XXSP,2013-09-16 03:23:00,
2013-09-15 20:28:00,70.2,34.5,30.04,South,180,0.0,0.0,27,0.00,,,0.00,WUHU21623XXSP,2013-09-16 03:28:00,
2013-09-15 20:33:00,69.8,34.0,30.04,ESE,112,0.0,0.0,27,0.00,,,0.00,WUHU21623XXSP,2013-09-16 03:33:00,
2013-09-15 20:38:00,69.6,33.9,30.04,SSE,157,0.0,0.0,27,0.00,,,0.00,WUHU21623XXSP,2013-09-16 03:38:00,
2013-09-15 20:43:00,69.3,33.5,30.04,ENE,67,0.0,0.0,27,0.00,,,0.00,WUHU21623XXSP,2013-09-16 03:43:00,
2013-09-15 20:48:00,68.9,33.2,30.04,SE,135,0.0,0.0,27,0.00,,,0.00,WUHU21623XXSP,2013-09-16 03:48:00,
2013-09-15 20:53:00,68.2,32.8,30.04,SSE,157,0.0,0.0,27,0.00,,,0.00,WUHU21623XXSP,2013-09-16 03:53:00,
2013-09-15 20:58:00,68.0,32.5,30.04,ESE,112,0.0,0.0,27,0.00,,,0.00,WUHU21623XXSP,2013-09-16 03:58:00,
2013-09-15 21:01:00,67.8,33.3,30.05,ESE,112,0.0,0.0,28,0.00,,,0.00,WUHU21623XXSP,2013-09-16 04:01:00,
2013-09-15 21:02:00,67.8,33.3,30.05,ESE,112,0.0,0.0,28,0.00,,,0.00,WUHU21623XXSP,2013-09-16 04:02:00,
2013-09-15 21:07:00,67.3,32.8,30.05,East,90,0.0,0.0,28,0.00,,,0.00,WUHU21623XXSP,2013-09-16 04:07:00,
2013-09-15 21:12:00,67.1,32.7,30.05,East,90,0.0,0.0,28,0.00,,,0.00,WUHU21623XXSP,2013-09-16 04:12:00,
2013-09-15 21:17:00,66.7,32.4,30.05,ENE,67,0.0,0.0,28,0.00,,,0.00,WUHU21623XXSP,2013-09-16 04:17:00,
2013-09-15 21:25:00,66.0,31.8,30.05,East,90,0.0,0.0,28,0.00,,,0.00,WUHU21623XXSP,2013-09-16 04:25:00,
2013-09-15 21:31:00,65.8,31.6,30.04,East,90,0.0,0.0,28,0.00,,,0.00,WUHU21623XXSP,2013-09-16 04:31:00,
2013-09-15 21:37:00,65.5,32.3,30.04,ENE,67,0.0,0.0,29,0.00,,,0.00,WUHU21623XXSP,2013-09-16 04:37:00,
2013-09-15 21:42:00,65.1,32.0,30.04,ENE,67,0.0,0.0,29,0.00,,,0.00,WUHU21623XXSP,2013-09-16 04:42:00,
2013-09-15 21:50:00,64.8,31.7,30.04,ENE,67,0.0,0.0,29,0.00,,,0.00,WUHU21623XXSP,2013-09-16 04:50:00,
2013-09-15 21:55:00,64.6,31.5,30.04,ENE,67,0.0,0.0,29,0.00,,,0.00,WUHU21623XXSP,2013-09-16 04:55:00,
2013-09-15 22:01:00,64.2,31.2,30.04,ESE,112,0.0,0.0,29,0.00,,,0.00,WUHU21623XXSP,2013-09-16 05:01:00,
2013-09-15 22:07:00,64.0,31.0,30.05,East,90,0.0,0.0,29,0.00,,,0.00,WUHU21623XXSP,2013-09-16 05:07:00,
2013-09-15 22:12:00,63.7,30.7,30.04,ESE,112,0.0,0.0,29,0.00,,,0.00,WUHU21623XXSP,2013-09-16 05:12:00,
2013-09-15 22:22:00,63.1,31.9,30.04,ENE,67,0.0,0.0,31,0.00,,,0.00,WUHU21623XXSP,2013-09-16 05:22:00,
2013-09-15 22:27:00,63.0,31.8,30.05,ESE,112,0.0,0.0,31,0.00,,,0.00,WUHU21623XXSP,2013-09-16 05:27:00,
2013-09-15 22:32:00,62.6,30.7,30.05,SE,135,0.0,0.0,30,0.00,,,0.00,WUHU21623XXSP,2013-09-16 05:32:00,
2013-09-15 22:37:00,62.4,30.6,30.04,East,90,0.0,0.0,30,0.00,,,0.00,WUHU21623XXSP,2013-09-16 05:37:00,
2013-09-15 22:42:00,62.2,30.6,30.04,SSE,157,0.0,0.0,30,0.00,,,0.00,WUHU21623XXSP,2013-09-16 05:42:00,
2013-09-15 22:47:00,62.2,30.4,30.04,ENE,67,0.0,0.0,30,0.00,,,0.00,WUHU21623XXSP,2013-09-16 05:47:00,
2013-09-15 22:52:00,61.9,31.0,30.04,SSE,157,0.0,0.0,31,0.00,,,0.00,WUHU21623XXSP,2013-09-16 05:52:00,
2013-09-15 22:58:00,61.9,31.5,30.04,SE,135,0.0,0.0,32,0.00,,,0.00,WUHU21623XXSP,2013-09-16 05:58:00,
2013-09-15 23:03:00,61.9,31.5,30.04,SE,135,0.0,0.0,32,0.00,,,0.00,WUHU21623XXSP,2013-09-16 06:03:00,
2013-09-15 23:08:00,61.7,31.4,30.04,East,90,0.0,0.0,32,0.00,,,0.00,WUHU21623XXSP,2013-09-16 06:08:00,
2013-09-15 23:13:00,61.5,31.2,30.05,ENE,67,0.0,0.0,32,0.00,,,0.00,WUHU21623XXSP,2013-09-16 06:13:00,
2013-09-15 23:18:00,61.5,31.2,30.04,ENE,67,0.0,0.0,32,0.00,,,0.00,WUHU21623XXSP,2013-09-16 06:18:00,
2013-09-15 23:23:00,61.3,31.0,30.04,ENE,67,0.0,0.0,32,0.00,,,0.00,WUHU21623XXSP,2013-09-16 06:23:00,
2013-09-15 23:29:00,61.3,31.0,30.04,ENE,67,0.0,0.0,32,0.00,,,0.00,WUHU21623XXSP,2013-09-16 06:29:00,
2013-09-15 23:35:00,61.2,30.9,30.04,ESE,112,0.0,0.0,32,0.00,,,0.00,WUHU21623XXSP,2013-09-16 06:35:00,
2013-09-15 23:40:00,61.0,30.7,30.04,ENE,67,0.0,0.0,32,0.00,,,0.00,WUHU21623XXSP,2013-09-16 06:40:00,
2013-09-15 23:45:00,61.0,30.7,30.04,NNE,22,0.0,0.0,32,0.00,,,0.00,WUHU21623XXSP,2013-09-16 06:45:00,
2013-09-15 23:50:00,61.0,30.7,30.04,SE,135,0.0,0.0,32,0.00,,,0.00,WUHU21623XXSP,2013-09-16 06:50:00,
2013-09-15 23:55:00,61.0,30.7,30.04,NNW,337,0.0,0.0,32,0.00,,,0.00,WUHU21623XXSP,2013-09-16 06:55:00,